This is the latest recevied weather packets stored in our database for station/object KI5GCD-13. If no packets are shown the sender has not sent any weather packets the latest 10 day(s).
| Time | Temp. | Humidity | Pressure | Rain* | Wind** | Luminosity | Snow |
|---|---|---|---|---|---|---|---|
| 1778003687 | 12.78° C | 97% | 1003.1 hPa | 0 mm | 0.45 m/s, 29° | - | - |
| 1778003387 | 12.78° C | 96% | 1003.3 hPa | 0 mm | 1.34 m/s, 3° | - | - |
| 1778003087 | 12.78° C | 96% | 1003.1 hPa | 0 mm | 1.79 m/s, 314° | - | - |
| 1778002787 | 12.78° C | 97% | 1003.2 hPa | 0 mm | 1.34 m/s, 207° | - | - |
| 1778002487 | 12.78° C | 97% | 1003.2 hPa | 0 mm | 0.89 m/s, 345° | - | - |
| 1778002188 | 12.78° C | 97% | 1003.3 hPa | 0 mm | 1.79 m/s, 346° | - | - |
| 1778001887 | 12.78° C | 97% | 1003.1 hPa | 0 mm | 0.89 m/s, 355° | - | - |
| 1778001587 | 12.78° C | 97% | 1003 hPa | 0 mm | 1.79 m/s, 12° | - | - |
| 1778001287 | 12.78° C | 97% | 1003.1 hPa | 0 mm | 1.79 m/s, 340° | - | - |
| 1778000987 | 12.78° C | 97% | 1002.9 hPa | 0 mm | 3.58 m/s, 97° | - | - |
| 1778000687 | 13.33° C | 97% | 1003 hPa | 0 mm | 1.34 m/s, 328° | - | - |
| 1778000387 | 13.89° C | 97% | 1002.9 hPa | 0 mm | 3.13 m/s, 37° | - | - |
| 1778000087 | 14.44° C | 98% | 1002.9 hPa | 0 mm | 1.79 m/s, 80° | - | - |
| 1777999787 | 14.44° C | 98% | 1002.6 hPa | 0 mm | 1.79 m/s, 66° | - | - |
| 1777999487 | 15° C | 99% | 1002.7 hPa | 0 mm | 2.24 m/s, 29° | - | - |
| 1777999187 | 15° C | 99% | 1002.6 hPa | 0 mm | 2.68 m/s, 24° | - | - |
| 1777998887 | 15° C | 99% | 1002.6 hPa | 0 mm | 1.79 m/s, 69° | - | - |
| 1777998587 | 14.44° C | 99% | 1002.3 hPa | 0 mm | 1.79 m/s, 62° | - | - |
| 1777998287 | 15° C | 99% | 1002.6 hPa | 0 mm | 2.24 m/s, 359° | - | - |
| 1777997987 | 15° C | 99% | 1002.7 hPa | 0 mm | 0.89 m/s, 40° | - | - |
| 1777997687 | 15° C | 99% | 1002.4 hPa | 0 mm | 1.34 m/s, 20° | - | - |
| 1777997387 | 15° C | 99% | 1002.5 hPa | 0 mm | 2.24 m/s, 33° | - | - |
| 1777997087 | 15° C | 99% | 1002.4 hPa | 0 mm | 1.34 m/s, 13° | - | - |
| 1777996787 | 15.56° C | 99% | 1002.3 hPa | 0 mm | 1.79 m/s, 332° | - | - |
| 1777996487 | 16.11° C | 99% | 1002.1 hPa | 0 mm | 3.58 m/s, 63° | - | - |
* Rain latest hour (hover to see other rain measurements)
** Current wind speed in m/s (hover to see current wind gust speed)